STARLINK-2410, 47825

Orbit data source: Space-Track

STARLINK-2410, 47825 is a payload satellite owned by SpaceX/Seattle (US) in LEO that was launched on Thu, 11 Mar 2021 UTC via an FALCON 9 launch vehicle from the Air Force Eastern Test Range (AFETR). Payload-class satellites include a variety of spacecraft equipped with specific instruments for various scientific and technological missions. These include communications satellites like Starlink; space stations such as the ISS; scientific satellites like the Hubble; Earth observation satellites from companies like Planet Labs, Umbra, and HawkEye 360; GPS; miniature CubeSats for education and research; and military/defense satellites.

Loading next visibility...
Identifier
47825, 2021-018AQ
Orbit
LEO
Country
Flag of USUS
Related business
Manufacturer
SpaceX/Seattle
Mission
Operational Commercial Communications
Bus & Motor
STARLINK, Unknown motor
Mass
260 kg wet, ~248 kg dry
Launch date (UTC)
2021-03-11 (5 years ago)
Launch vehicle
FALCON 9
Launch site
Air Force Eastern Test Range (AFETR)
Object type
Payload
Rocket body
Debris
Shape & HBR
Box + 1 Pan, 10.1 m
Radar Cross Section
13.562 m², Large (>1 m²)

Expand to show TLE details & history
Last TLE update: 9 hours ago

TLE from 9 hours ago
0 STARLINK-2410
1 47825U 21018AQ  26120.09617845  .00008761  00000-0  29369-3 0  9993
2 47825  53.1614   3.8567 0001252 103.7957 256.3184 15.31707803284603
Epoch: 2026-04-30T02:18Z
TLE epoch observation values (Epoch: 2026-04-30T02:18:29.818Z)
Latitude
0.00001°
Longitude
111.18477°
Altitude
471.82 km
Speed
7.631 km/s
True Right ascension
00h 15m 25s
True Declination
0° 00' 00"
Sunlit
Object was in daylight at epoch
Visualization orbit readout
Latitude
Unknown
Longitude
Unknown
Altitude
Unknown
Speed
Unknown
Apparent Right ascension
Unknown
Apparent Declination
Unknown
Sunlit
N/A
Visualization observer readout
Local Sidereal Time
18:59:46
Azimuth
Unknown
Elevation
Unknown
Doppler factor
Unknown
Orbital elements
Apogee altitude
471.831 km
Perigee altitude
470.116 km
Semi-major axis
6,849.11 km
Eccentricity
0.00013
Inclination
53.1614°
RAAN
3.8567°
Arg. of periapsis
103.7957°
True anomaly
256.30446°
Mean anomaly
256.3184°
Eccentric anomaly
256.31143°
Mean motion
3.82906 °/min
Orbital period
94.02 mins
BSTAR
0.00029369
Loading maneuver chart data...
Computing Atmospheric mass density...
Loading historical data...
Loading historical data...
Loading historical data...
Loading historical data...
Loading historical data...
Loading historical data...
Loading historical data...

Documentation

Showing up to 5 results
|